Location: Be?i?
(36.9044°N, 30.1006°E)
Time: 12:04:02
(UTC+00:00)

Cosmos 1605 Rocket - Pass Details

Date: 05 August 2024
Orbit: 945 x 1004 km, 82.9° (Epoch: 08 September)

Event Time Altitude Azimuth Distance (km) Brightness Sun altitude
Exits shadow 19:00:51 37° 150° (SSE) 1,447 4.4 -21.0°
Maximum altitude 19:03:05 57° 92° (E) 1,130 4.0 -21.3°
Drops below altitude 10° 19:09:11 10° 15° (NNE) 2,736 6.7 -22.2°
Sets 19:11:45 0° 12° (NNE) 3,696 7.5 -22.6°
